| time (UTC) | temp F | wind direction | speed MPH | gust MPH | rain 1hr in | rain 24hr in | rain mn in | humidity % | barometer mb |
| 20260504040459 | 67 | 95 | 1.0 | 4.0 | 0.00 | 0.00 | 0.00 | 77 | 1016.9 |
| 20260504035959 | 68 | 0 | 0.0 | 3.0 | 0.00 | 0.00 | 0.00 | 77 | 1017.0 |
| 20260504035458 | 68 | 76 | 0.0 | 3.0 | 0.00 | 0.00 | 0.00 | 76 | 1017.0 |
| 20260504035000 | 68 | 0 | 0.0 | 3.0 | 0.00 | 0.00 | 0.00 | 76 | 1016.9 |
| 20260504034459 | 68 | 150 | 0.0 | 2.0 | 0.00 | 0.00 | 0.00 | 76 | 1016.9 |
| 20260504034000 | 69 | 0 | 0.0 | 2.0 | 0.00 | 0.00 | 0.00 | 75 | 1016.9 |
| 20260504033458 | 69 | 0 | 1.0 | 4.0 | 0.00 | 0.00 | 0.00 | 74 | 1016.9 |
| 20260504031958 | 69 | 120 | 1.0 | 4.0 | 0.00 | 0.00 | 0.00 | 73 | 1016.9 |
| 20260504031456 | 69 | 58 | 1.0 | 5.0 | 0.00 | 0.00 | 0.00 | 73 | 1017.0 |
| 20260504030456 | 70 | 0 | 1.0 | 3.0 | 0.00 | 0.00 | 0.00 | 72 | 1017.0 |
| 20260504025958 | 70 | 140 | 1.0 | 3.0 | 0.00 | 0.00 | 0.00 | 72 | 1017.0 |
| 20260504025457 | 70 | 94 | 1.0 | 4.0 | 0.00 | 0.00 | 0.00 | 71 | 1016.9 |
| 20260504024958 | 70 | 115 | 2.0 | 7.0 | 0.00 | 0.00 | 0.00 | 71 | 1016.8 |
| 20260504024454 | 70 | 113 | 2.0 | 7.0 | 0.00 | 0.00 | 0.00 | 71 | 1016.8 |
| 20260504023955 | 71 | 81 | 2.0 | 6.0 | 0.00 | 0.00 | 0.00 | 70 | 1016.7 |
| 20260504023454 | 71 | 90 | 2.0 | 5.0 | 0.00 | 0.00 | 0.00 | 70 | 1016.7 |
| 20260504022454 | 71 | 67 | 2.0 | 5.0 | 0.00 | 0.00 | 0.00 | 70 | 1016.6 |
| 20260504021955 | 71 | 124 | 2.0 | 4.0 | 0.00 | 0.00 | 0.00 | 70 | 1016.5 |
| 20260504021454 | 71 | 96 | 2.0 | 6.0 | 0.00 | 0.00 | 0.00 | 70 | 1016.4 |
| 20260504020956 | 71 | 117 | 2.0 | 6.0 | 0.00 | 0.00 | 0.00 | 69 | 1016.5 |
| 20260504020454 | 71 | 128 | 2.0 | 5.0 | 0.00 | 0.00 | 0.00 | 69 | 1016.5 |
| 20260504015956 | 71 | 0 | 2.0 | 5.0 | 0.00 | 0.00 | 0.00 | 69 | 1016.4 |
| 20260504015454 | 71 | 154 | 2.0 | 5.0 | 0.00 | 0.00 | 0.00 | 69 | 1016.5 |
| 20260504014956 | 72 | 88 | 2.0 | 6.0 | 0.00 | 0.00 | 0.00 | 68 | 1016.3 |
| 20260504014454 | 72 | 150 | 2.0 | 6.0 | 0.00 | 0.00 | 0.00 | 68 | 1016.3 |
| 20260504013956 | 72 | 113 | 2.0 | 5.0 | 0.00 | 0.00 | 0.00 | 68 | 1016.3 |
| 20260504013455 | 72 | 100 | 2.0 | 5.0 | 0.00 | 0.00 | 0.00 | 67 | 1016.3 |
| 20260504012954 | 72 | 129 | 2.0 | 5.0 | 0.00 | 0.00 | 0.00 | 67 | 1016.3 |
| 20260504012452 | 73 | 111 | 3.0 | 5.0 | 0.00 | 0.00 | 0.00 | 66 | 1016.2 |
| 20260504011954 | 73 | 104 | 2.0 | 5.0 | 0.00 | 0.00 | 0.00 | 66 | 1016.2 |
| 20260504010954 | 73 | 0 | 2.0 | 7.0 | 0.00 | 0.00 | 0.00 | 66 | 1016.0 |
| 20260504010449 | 73 | 106 | 3.0 | 7.0 | 0.00 | 0.00 | 0.00 | 65 | 1015.9 |
| 20260504005951 | 73 | 128 | 3.0 | 7.0 | 0.00 | 0.00 | 0.00 | 65 | 1015.8 |
| 20260504005449 | 74 | 142 | 4.0 | 8.0 | 0.00 | 0.00 | 0.00 | 64 | 1015.9 |
| 20260504004951 | 74 | 148 | 3.0 | 8.0 | 0.00 | 0.00 | 0.00 | 63 | 1015.8 |
| 20260504004449 | 74 | 132 | 2.0 | 6.0 | 0.00 | 0.00 | 0.00 | 64 | 1015.9 |
| 20260504003952 | 74 | 132 | 3.0 | 9.0 | 0.00 | 0.00 | 0.00 | 63 | 1016.0 |
| 20260504003450 | 74 | 150 | 3.0 | 9.0 | 0.00 | 0.00 | 0.00 | 63 | 1015.9 |
| 20260504002952 | 74 | 118 | 3.0 | 9.0 | 0.00 | 0.00 | 0.00 | 63 | 1016.0 |
| 20260504002450 | 75 | 134 | 3.0 | 8.0 | 0.00 | 0.00 | 0.00 | 62 | 1016.1 |
| 20260504001951 | 75 | 95 | 3.0 | 8.0 | 0.00 | 0.00 | 0.00 | 62 | 1016.2 |
| 20260504001451 | 75 | 124 | 3.0 | 10.0 | 0.00 | 0.00 | 0.00 | 61 | 1016.4 |
| 20260504000957 | 76 | 123 | 3.0 | 10.0 | 0.00 | 0.00 | 0.00 | 61 | 1016.4 |
| 20260503235957 | 76 | 92 | 3.0 | 10.0 | 0.00 | 0.00 | 0.00 | 61 | 1016.3 |
| 20260503235447 | 76 | 129 | 3.0 | 10.0 | 0.00 | 0.00 | 0.00 | 60 | 1016.2 |
| 20260503234447 | 76 | 213 | 4.0 | 9.0 | 0.00 | 0.00 | 0.00 | 60 | 1016.0 |
| 20260503233957 | 76 | 111 | 4.0 | 11.0 | 0.00 | 0.00 | 0.00 | 61 | 1016.0 |
| 20260503233447 | 76 | 95 | 4.0 | 11.0 | 0.00 | 0.00 | 0.00 | 61 | 1016.0 |
| 20260503232957 | 76 | 97 | 5.0 | 11.0 | 0.00 | 0.00 | 0.00 | 60 | 1016.0 |
| 20260503232448 | 77 | 116 | 5.0 | 12.0 | 0.00 | 0.00 | 0.00 | 60 | 1016.1 |
| 20260503232000 | 77 | 118 | 5.0 | 12.0 | 0.00 | 0.00 | 0.00 | 60 | 1016.0 |
| 20260503231444 | 77 | 134 | 4.0 | 10.0 | 0.00 | 0.00 | 0.00 | 59 | 1016.1 |
| 20260503230949 | 77 | 123 | 4.0 | 11.0 | 0.00 | 0.00 | 0.00 | 60 | 1016.2 |
| 20260503230444 | 77 | 173 | 4.0 | 13.0 | 0.00 | 0.00 | 0.00 | 59 | 1016.1 |
| 20260503225443 | 78 | 127 | 5.0 | 11.0 | 0.00 | 0.00 | 0.00 | 58 | 1016.2 |
| 20260503224949 | 78 | 122 | 5.0 | 13.0 | 0.00 | 0.00 | 0.00 | 58 | 1016.2 |
| 20260503223949 | 78 | 107 | 4.0 | 9.0 | 0.00 | 0.00 | 0.00 | 57 | 1016.2 |
| 20260503223444 | 78 | 162 | 3.0 | 7.0 | 0.00 | 0.00 | 0.00 | 57 | 1016.3 |
| 20260503222946 | 78 | 78 | 3.0 | 3.0 | 0.00 | 0.00 | 0.00 | 57 | 1016.3 |
| 20260503222509 | 78 | 98 | 4.0 | 10.0 | 0.00 | 0.00 | 0.00 | 56 | 1016.4 |
| 20260503222009 | 79 | 123 | 3.0 | 10.0 | 0.00 | 0.00 | 0.00 | 56 | 1016.4 |
| 20260503221509 | 79 | 96 | 3.0 | 9.0 | 0.00 | 0.00 | 0.00 | 55 | 1016.4 |
| 20260503221009 | 78 | 106 | 3.0 | 9.0 | 0.00 | 0.00 | 0.00 | 55 | 1016.4 |
| 20260503220509 | 79 | 112 | 3.0 | 9.0 | 0.00 | 0.00 | 0.00 | 54 | 1016.6 |
| 20260503220007 | 78 | 121 | 3.0 | 8.0 | 0.00 | 0.00 | 0.00 | 55 | 1016.6 |
| 20260503215506 | 78 | 157 | 4.0 | 8.0 | 0.00 | 0.00 | 0.00 | 56 | 1016.7 |
| 20260503215004 | 78 | 159 | 4.0 | 8.0 | 0.00 | 0.00 | 0.00 | 55 | 1016.8 |
| 20260503214504 | 79 | 110 | 4.0 | 10.0 | 0.00 | 0.00 | 0.00 | 54 | 1017.0 |
| 20260503214004 | 80 | 95 | 4.0 | 10.0 | 0.00 | 0.00 | 0.00 | 54 | 1017.1 |
| 20260503213504 | 80 | 103 | 3.0 | 8.0 | 0.00 | 0.00 | 0.00 | 53 | 1017.1 |
| 20260503212503 | 80 | 178 | 3.0 | 9.0 | 0.00 | 0.00 | 0.00 | 53 | 1017.4 |
| 20260503212003 | 79 | 179 | 4.0 | 9.0 | 0.00 | 0.00 | 0.00 | 53 | 1017.3 |
| 20260503211504 | 79 | 134 | 3.0 | 9.0 | 0.00 | 0.00 | 0.00 | 53 | 1017.5 |
| 20260503211004 | 78 | 87 | 3.0 | 9.0 | 0.00 | 0.00 | 0.00 | 54 | 1017.5 |
| 20260503210005 | 79 | 85 | 5.0 | 11.0 | 0.00 | 0.00 | 0.00 | 55 | 1017.6 |
| 20260503205505 | 80 | 105 | 4.0 | 11.0 | 0.00 | 0.00 | 0.00 | 53 | 1017.7 |
| 20260503205004 | 80 | 43 | 3.0 | 8.0 | 0.00 | 0.00 | 0.00 | 53 | 1017.7 |
| 20260503204504 | 80 | 0 | 3.0 | 9.0 | 0.00 | 0.00 | 0.00 | 53 | 1017.9 |
| 20260503203503 | 80 | 132 | 3.0 | 15.0 | 0.00 | 0.00 | 0.00 | 54 | 1018.1 |
| 20260503202000 | 80 | 116 | 4.0 | 11.0 | 0.00 | 0.00 | 0.00 | 53 | 1018.2 |
| 20260503201458 | 80 | 135 | 3.0 | 9.0 | 0.00 | 0.00 | 0.00 | 53 | 1018.3 |
| 20260503200000 | 80 | 68 | 3.0 | 11.0 | 0.00 | 0.00 | 0.00 | 54 | 1018.5 |
| 20260503195500 | 80 | 178 | 3.0 | 10.0 | 0.00 | 0.00 | 0.00 | 53 | 1018.5 |
| 20260503194959 | 80 | 138 | 4.0 | 10.0 | 0.00 | 0.00 | 0.00 | 53 | 1018.7 |
| 20260503194459 | 79 | 168 | 4.0 | 9.0 | 0.00 | 0.00 | 0.00 | 52 | 1018.8 |
| 20260503193959 | 80 | 104 | 4.0 | 9.0 | 0.00 | 0.00 | 0.00 | 52 | 1018.8 |
| 20260503193459 | 80 | 101 | 4.0 | 9.0 | 0.00 | 0.00 | 0.00 | 53 | 1018.9 |
| 20260503192959 | 80 | 160 | 4.0 | 9.0 | 0.00 | 0.00 | 0.00 | 54 | 1018.9 |
| 20260503192500 | 80 | 114 | 3.0 | 10.0 | 0.00 | 0.00 | 0.00 | 52 | 1018.9 |
| 20260503191957 | 79 | 139 | 2.0 | 10.0 | 0.00 | 0.00 | 0.00 | 52 | 1019.0 |
| 20260503191457 | 78 | 146 | 3.0 | 8.0 | 0.00 | 0.00 | 0.00 | 54 | 1019.1 |
| 20260503191000 | 78 | 149 | 4.0 | 9.0 | 0.00 | 0.00 | 0.00 | 54 | 1019.1 |
| 20260503190454 | 78 | 151 | 4.0 | 9.0 | 0.00 | 0.00 | 0.00 | 53 | 1019.2 |
| 20260503185954 | 79 | 107 | 4.0 | 9.0 | 0.00 | 0.00 | 0.00 | 52 | 1019.3 |
| 20260503185454 | 80 | 123 | 3.0 | 9.0 | 0.00 | 0.00 | 0.00 | 51 | 1019.4 |
| 20260503184454 | 79 | 78 | 4.0 | 9.0 | 0.00 | 0.00 | 0.00 | 52 | 1019.5 |
| 20260503183955 | 79 | 126 | 3.0 | 8.0 | 0.00 | 0.00 | 0.00 | 52 | 1019.5 |
| 20260503182954 | 78 | 92 | 3.0 | 8.0 | 0.00 | 0.00 | 0.00 | 54 | 1019.8 |
| 20260503182454 | 78 | 87 | 3.0 | 6.0 | 0.00 | 0.00 | 0.00 | 51 | 1019.9 |
| 20260503181955 | 79 | 66 | 3.0 | 7.0 | 0.00 | 0.00 | 0.00 | 52 | 1020.0 |
| 20260503181452 | 79 | 131 | 2.0 | 7.0 | 0.00 | 0.00 | 0.00 | 51 | 1020.0 |
| 20260503180954 | 80 | 93 | 2.0 | 6.0 | 0.00 | 0.00 | 0.00 | 51 | 1020.1 |
| 20260503180449 | 80 | 41 | 3.0 | 7.0 | 0.00 | 0.00 | 0.00 | 51 | 1020.2 |
| 20260503175946 | 79 | 153 | 3.0 | 7.0 | 0.00 | 0.00 | 0.00 | 51 | 1020.3 |
| 20260503175442 | 80 | 79 | 2.0 | 5.0 | 0.00 | 0.00 | 0.00 | 51 | 1020.4 |
| 20260503174943 | 80 | 104 | 2.0 | 6.0 | 0.00 | 0.00 | 0.00 | 50 | 1020.4 |
| 20260503174443 | 79 | 131 | 3.0 | 7.0 | 0.00 | 0.00 | 0.00 | 50 | 1020.5 |
| 20260503173943 | 78 | 141 | 4.0 | 9.0 | 0.00 | 0.00 | 0.00 | 51 | 1020.6 |
| 20260503173443 | 78 | 152 | 4.0 | 9.0 | 0.00 | 0.00 | 0.00 | 52 | 1020.7 |
| 20260503172944 | 78 | 98 | 3.0 | 9.0 | 0.00 | 0.00 | 0.00 | 52 | 1020.8 |
| 20260503172444 | 78 | 67 | 3.0 | 9.0 | 0.00 | 0.00 | 0.00 | 52 | 1020.8 |
| 20260503171943 | 78 | 142 | 3.0 | 9.0 | 0.00 | 0.00 | 0.00 | 53 | 1020.9 |
| 20260503171443 | 78 | 116 | 3.0 | 7.0 | 0.00 | 0.00 | 0.00 | 53 | 1020.9 |
| 20260503170943 | 78 | 161 | 2.0 | 6.0 | 0.00 | 0.00 | 0.00 | 53 | 1020.9 |
| 20260503170443 | 77 | 67 | 2.0 | 8.0 | 0.00 | 0.00 | 0.00 | 54 | 1021.0 |
| 20260503131413 | 60 | 302 | 1.0 | 2.0 | 0.00 | 0.00 | 0.00 | 90 | 1020.8 |
| 20260503130912 | 60 | 0 | 1.0 | 2.0 | 0.00 | 0.00 | 0.00 | 90 | 1020.7 |
| 20260503130412 | 59 | 180 | 1.0 | 3.0 | 0.00 | 0.00 | 0.00 | 90 | 1020.7 |
| 20260503110805 | 57 | 8 | 0.0 | 2.0 | 0.00 | 0.00 | 0.00 | 93 | 1019.2 |
| 20260503110318 | 57 | 0 | 0.0 | 2.0 | 0.00 | 0.00 | 0.00 | 93 | 1019.2 |
| 20260503100259 | 56 | 277 | 0.0 | 3.0 | 0.00 | 0.00 | 0.00 | 94 | 1019.9 |
| 20260503090258 | 58 | 0 | 0.0 | 1.0 | 0.00 | 0.00 | 0.00 | 91 | 1019.5 |
| 20260503081256 | 58 | 273 | 1.0 | 3.0 | 0.00 | 0.00 | 0.00 | 93 | 1019.8 |
| 20260503080755 | 58 | 0 | 0.0 | 2.0 | 0.00 | 0.00 | 0.00 | 92 | 1019.8 |
| 20260503072750 | 58 | 0 | 0.0 | 2.0 | 0.00 | 0.00 | 0.00 | 92 | 1020.2 |
| 20260503071747 | 58 | 0 | 0.0 | 1.0 | 0.00 | 0.00 | 0.00 | 91 | 1020.1 |
| 20260503071247 | 59 | 0 | 0.0 | 1.0 | 0.00 | 0.00 | 0.00 | 91 | 1020.1 |
| 20260503070747 | 59 | 0 | 0.0 | 2.0 | 0.00 | 0.00 | 0.00 | 91 | 1020.2 |
| 20260503070248 | 59 | 0 | 0.0 | 2.0 | 0.00 | 0.00 | 0.00 | 91 | 1020.2 |
| 20260503060247 | 60 | 0 | 0.0 | 2.0 | 0.00 | 0.00 | 0.00 | 89 | 1020.0 |
| 20260503054747 | 60 | 275 | 0.0 | 1.0 | 0.00 | 0.00 | 0.00 | 89 | 1020.0 |
| 20260503054247 | 60 | 0 | 0.0 | 2.0 | 0.00 | 0.00 | 0.00 | 88 | 1020.1 |
| 20260503053747 | 60 | 0 | 0.0 | 2.0 | 0.00 | 0.00 | 0.00 | 88 | 1020.2 |
| 20260503052747 | 60 | 264 | 0.0 | 2.0 | 0.00 | 0.00 | 0.00 | 88 | 1020.2 |
| 20260503051747 | 61 | 0 | 0.0 | 2.0 | 0.00 | 0.00 | 0.00 | 87 | 1020.1 |
| 20260503051246 | 61 | 0 | 0.0 | 2.0 | 0.00 | 0.00 | 0.00 | 87 | 1020.1 |
| 20260503050746 | 61 | 0 | 0.0 | 2.0 | 0.00 | 0.00 | 0.00 | 86 | 1020.0 |
| 20260503050243 | 61 | 314 | 0.0 | 2.0 | 0.00 | 0.00 | 0.00 | 86 | 1020.0 |
| 20260503045743 | 61 | 294 | 0.0 | 2.0 | 0.00 | 0.00 | 0.00 | 86 | 1020.0 |
| 20260503045240 | 61 | 330 | 0.0 | 2.0 | 0.00 | 0.00 | 0.00 | 86 | 1020.0 |
| 20260503044741 | 61 | 333 | 0.0 | 2.0 | 0.00 | 0.00 | 0.00 | 86 | 1020.0 |
| 20260503044241 | 61 | 352 | 0.0 | 2.0 | 0.00 | 0.00 | 0.00 | 86 | 1020.1 |
| 20260503043740 | 62 | 0 | 1.0 | 3.0 | 0.00 | 0.00 | 0.00 | 86 | 1020.0 |
| 20260503043240 | 62 | 304 | 1.0 | 3.0 | 0.00 | 0.00 | 0.00 | 86 | 1020.0 |
| 20260503042741 | 62 | 295 | 1.0 | 2.0 | 0.00 | 0.00 | 0.00 | 85 | 1019.9 |
| 20260503042241 | 62 | 13 | 1.0 | 2.0 | 0.00 | 0.00 | 0.00 | 85 | 1019.9 |
| 20260503041241 | 63 | 267 | 0.0 | 2.0 | 0.00 | 0.00 | 0.00 | 84 | 1019.8 |